Terug naar catalogus

COSMOS 397 DEB

ActiefLEO
NORAD 5019·DEBRIS·🇷🇺 Russia

Gelanceerd Feb 25, 1971 vanaf Baikonur Cosmodrome

Loading…

Volgende Passages

TLE

Source: Space-Track
1 05019U 71015N   26224.58889679  .00001542  00000-0  26325-3 0  9998
2 05019  65.6806 344.2054 0378854 348.0061  11.2189 14.34421676720310

Volg COSMOS 397 DEB in realtime met AllMySat

Download on the App Store